User: anonymous   Login
Location: Sunny Point
(33.0946°N, 85.0574°W)
Time: 08:42:40
(UTC+00:00)
Language:

CUTE 1.7 + AOD 2 - Orbit

View from above orbital plane
View from above orbital plane
View from above satellite
View from above satellite

Ground track
Ground track

The orbit data is extracted from the following two-line orbital elements,

1 32785U 08021C   24205.84648503  .00009305  00000-0  80682-3 0  9991
2 32785  97.7562 170.8825 0010736 192.4339 167.6620 14.97257347880960
Epoch (UTC): 23 July 2024 20:18:56
Eccentricity: 0.0010736
inclination: 97.7562°
perigee height: 568 km
apogee height: 583 km
right ascension of ascending node: 170.8825°
argument of perigee: 192.4339°
revolutions per day: 14.97257347
mean anomaly at epoch: 167.6620°
orbit number at epoch: 88096

The dashed part of the orbit path shows where the satellite is in the earth's shadow,  

DLR